sat.trackr.live / text

‹ back to catalog

STARLINK-11550 [DTC]

NORAD 63052 · 2025-035A

PAYLOAD ACTIVE UNKNOWN

§ Identity

Operator
Country
US
Launch date
2025-02-21
Launch site
AFETR
Launch vehicle
Mass (kg)
RCS (m²)

Purposes: comms

External: N2YO · Heavens-Above · Gunter

§ Orbital elements

Epoch: 2026-09-21T08:06:04.296672Z

Period
91.67 min
Inclination
42.9997°
Eccentricity
0.0000586
Mean motion
15.70846740 rev/d
Perigee alt
356.1 km
Apogee alt
356.9 km
Semi-major
6,734.6 km
B*
9.8068e-4
RAAN
275.8265°
Arg perigee
212.0649°
Mean anomaly
148.0183°
Rev number
9,199

§ Raw data

STARLINK-11550 [DTC]1 63052U 25035A   26264.33754973  .00127366  00000+0  98068-3 0  99902 63052  42.9997 275.8265 0000586 212.0649 148.0183 15.70846740 91991

JSON: /api/v1/satellites/63052 · /tle

For live sub-satellite position, see the globe view (requires WebGL).

§ Visibility from observer

Set your observer location to see the next 7 days of passes ≥ 10°. The values pass through the URL so the page stays shareable.

No JS? Fill the form by hand. The geolocation button needs JavaScript.